Location: Kervinic
(48.4279°N, 4.7373°W)
Time: 08:21:03
(UTC+00:00)

Cosmos 2360 - Pass Details

Date: 09 April 2020
Orbit: 847 x 855 km, 70.8° (Epoch: 01 June)

Event Time Altitude Azimuth Distance (km) Brightness Sun altitude
Rises 22:02:45 0° 331° (NNW) 3,422 8.7 -26.0°
Reaches altitude 10° 22:05:12 10° 332° (NNW) 2,483 7.6 -26.2°
Maximum altitude 22:10:56 86° 62° (ENE) 858 4.1 -26.8°
Enters shadow 22:11:13 81° 126° (SE) 866 4.0 -26.8°
